Weather History for Corsicana, TX

Change the Weather History Date:

Saturday, March 9, 2013

  Actual Average (KACT) Record (KACT)
Temperature  
Mean Temperature 66 °F 56 °F  
Max Temperature 73 °F 67 °F 92 °F (1911)
Min Temperature 60 °F 46 °F 16 °F (1996)
Degree Days  
Heating Degree Days 0 9  
Month to date heating degree days 93  
Since 1 July heating degree days 1905  
Cooling Degree Days 2 1  
Month to date cooling degree days 8  
Year to date cooling degree days 17  
Growing Degree Days 16 (Base 50)    
Moisture  
Dew Point 59 °F    
Average Humidity 74    
Maximum Humidity 84    
Minimum Humidity 64    
Precipitation  
Precipitation 0.00 in 0.11 in 1.51 in (1953)
Month to date precipitation 1.02  
Year to date precipitation 5.77  
Snow  
Snow 0.00 in 0.00 in 2.50 in (1915)
Month to date snowfall 0.0  
Since 1 July snowfall 0.9  
Snow Depth -    
Sea Level Pressure  
Sea Level Pressure 29.85 in    
Wind  
Wind Speed 16 mph (SSE)    
Max Wind Speed 25 mph    
Max Gust Speed 32 mph    
Visibility 8 miles    
Events Rain , Thunderstorm    
T = Trace of Precipitation, MM = Missing Value Source: NWS Daily Summary

Daily Weather History Graph

Daily Weather History Graph

Search for Another Location

Airport:

Trip Planner

Search our weather history database for the weather conditions in past years. The results will help you decide how hot, cold, wet, or windy it might be!

Date:

Astronomy

Mar. 09, 2013 Rise Set
Actual Time 6:42 AM CST 6:29 PM CST
Civil Twilight 6:18 AM CST 6:53 PM CST
Nautical Twilight 5:50 AM CST 7:22 PM CST
Astronomical Twilight 5:21 AM CST 7:50 PM CST
Moon 5:01 AM CST (3/9) 4:37 PM CST (3/9)
Length of Visible Light 12h 35m
Length of Day
11h 46m
Waning Crescent, 5% of the Moon is Illuminated
Mar 9
Waning Crescent
Mar 11
New
Mar 19
First Quarter
Mar 27
Full
Apr 2
Last Quarter

Hourly Weather History & Observations

Time (CST) Temp. Dew Point Humidity Pressure Visibility Wind Dir Wind Speed Gust Speed Precip Events Conditions
12:53 AM 60.1 °F 54.0 °F 80% 30.03 in 9.0 mi SSE 12.7 mph - N/A   Overcast
1:10 AM 60.8 °F 53.6 °F 77% 30.03 in 8.0 mi SSE 13.8 mph - N/A   Overcast
1:53 AM 61.0 °F 55.0 °F 81% 30.00 in 8.0 mi SSE 13.8 mph - N/A   Overcast
2:53 AM 61.0 °F 55.0 °F 81% 29.97 in 8.0 mi SSE 15.0 mph 24.2 mph N/A   Overcast
3:53 AM 61.0 °F 55.0 °F 81% 29.95 in 8.0 mi SSE 16.1 mph 23.0 mph N/A   Overcast
4:40 AM 60.8 °F 55.4 °F 82% 29.94 in 8.0 mi SSE 13.8 mph - N/A   Overcast
4:53 AM 61.0 °F 55.9 °F 83% 29.94 in 7.0 mi SSE 13.8 mph - N/A   Overcast
5:53 AM 62.1 °F 55.9 °F 80% 29.94 in 7.0 mi SSE 15.0 mph - N/A   Overcast
6:53 AM 62.1 °F 57.0 °F 84% 29.92 in 7.0 mi SSE 15.0 mph - N/A   Overcast
8:53 AM 63.0 °F 57.9 °F 84% 29.92 in 6.0 mi SSE 17.3 mph - N/A   Haze
9:53 AM 66.0 °F 59.0 °F 78% 29.90 in 6.0 mi SSE 19.6 mph - N/A   Haze
10:03 AM 66.2 °F 59.0 °F 78% 29.90 in 6.0 mi SSE 18.4 mph - N/A   Haze
10:45 AM 69.8 °F 60.8 °F 73% 29.88 in 8.0 mi South 21.9 mph 31.1 mph N/A   Overcast
10:53 AM 70.0 °F 60.1 °F 71% 29.87 in 8.0 mi South 23.0 mph 31.1 mph N/A   Overcast
11:53 AM 73.0 °F 60.1 °F 64% 29.86 in 10.0 mi South 23.0 mph 29.9 mph N/A   Overcast
12:13 PM 71.6 °F 60.8 °F 69% 29.86 in 10.0 mi South 25.3 mph 29.9 mph N/A   Overcast
12:25 PM 71.6 °F 60.8 °F 69% 29.85 in 10.0 mi South 20.7 mph 32.2 mph N/A   Overcast
12:35 PM 71.6 °F 60.8 °F 69% 29.85 in 9.0 mi South 18.4 mph 28.8 mph N/A   Overcast
12:53 PM 72.0 °F 60.1 °F 66% 29.83 in 10.0 mi South 16.1 mph 25.3 mph N/A   Overcast
1:08 PM 73.4 °F 60.8 °F 65% 29.83 in 10.0 mi South 16.1 mph 25.3 mph N/A   Overcast
1:53 PM 72.0 °F 60.1 °F 66% 29.79 in 10.0 mi South 15.0 mph 25.3 mph N/A   Overcast
2:53 PM 73.0 °F 60.1 °F 64% 29.78 in 9.0 mi South 18.4 mph 25.3 mph N/A   Overcast
3:53 PM 73.0 °F 60.1 °F 64% 29.75 in 9.0 mi South 18.4 mph 27.6 mph N/A   Overcast
4:53 PM 73.0 °F 60.1 °F 64% 29.73 in 9.0 mi South 11.5 mph - N/A   Overcast
5:53 PM 72.0 °F 60.1 °F 66% 29.69 in 9.0 mi South 13.8 mph - N/A   Overcast
6:53 PM 72.0 °F 60.1 °F 66% 29.72 in 9.0 mi SSE 19.6 mph - N/A   Overcast
7:53 PM 71.1 °F 60.1 °F 68% 29.73 in 9.0 mi SSE 18.4 mph 25.3 mph N/A   Overcast
8:53 PM 69.1 °F 60.1 °F 73% 29.74 in 9.0 mi SSE 16.1 mph 23.0 mph N/A   Overcast
9:19 PM 69.8 °F 60.8 °F 73% 29.78 in 9.0 mi SSE 12.7 mph - N/A   Overcast
9:53 PM 68.0 °F 60.1 °F 76% 29.77 in 10.0 mi SSE 16.1 mph - N/A   Overcast
10:53 PM 66.9 °F 60.1 °F 79% 29.76 in 9.0 mi SSE 8.1 mph - N/A   Mostly Cloudy
11:53 PM 64.9 °F 60.1 °F 84% 29.77 in 8.0 mi SSE 13.8 mph - 0.00 in Rain , Thunderstorm Light Rain